EHI
0 0 0 0 0 0 0 0 0 0 0 1 2 2 1 1 1 0 4 20 48 64 56 50 61 73 79 77 66 47 26 10 3 2 1 0 0 0 0 0 0 0 0 0 0 0 0 0 0
0 0 0 0 0 0 0 0 0 0 1 1 1 1 1 2 2 1 4 19 43 57 51 49 63 75 79 80 73 57 36 18 8 4 1 0 0 0 0 0 0 0 0 0 0 0 0 0 0
0 0 0 0 0 0 0 0 1 2 3 2 1 0 1 2 4 3 6 17 33 41 42 48 63 72 76 81 80 70 52 32 17 8 4 1 1 0 0 0 0 0 0 0 0 0 0 0 0
0 0 0 0 0 0 0 1 3 5 5 4 2 0 0 3 9 10 9 14 24 29 31 43 58 66 70 76 78 74 63 46 29 16 9 5 2 1 0 0 0 0 0 1 1 1 0 0 0
0 0 0 0 0 0 0 3 8 11 9 6 2 1 1 7 17 18 10 9 18 23 23 32 47 56 60 65 66 65 60 50 36 22 14 8 4 1 0 0 0 0 1 2 2 1 0 0 0
0 0 0 0 0 0 1 6 15 22 20 12 5 3 4 10 20 22 13 7 10 14 14 19 29 38 42 45 46 44 41 36 28 20 13 7 3 1 0 0 1 1 2 3 2 0 0 0 0
0 0 0 0 0 0 3 10 23 33 33 22 11 7 6 10 22 29 24 13 7 7 7 9 13 17 20 22 22 20 18 17 14 12 9 5 2 1 0 0 1 2 2 3 3 2 2 1 1
0 0 0 0 0 1 8 21 33 44 43 32 21 15 11 18 37 48 42 27 14 7 5 5 5 6 6 7 6 6 6 5 6 6 6 4 2 1 0 1 2 3 3 3 4 5 6 5 3
0 0 0 0 0 3 15 32 46 54 55 47 38 31 30 41 60 70 61 44 27 16 9 6 5 4 2 1 1 2 2 2 2 3 4 3 2 1 1 3 4 3 3 3 6 9 11 12 11
0 0 0 0 1 6 22 40 53 63 66 62 57 55 58 67 78 81 74 60 44 32 23 18 15 10 5 2 1 2 2 2 3 2 3 4 3 3 4 5 5 4 4 6 10 15 18 23 26
0 0 0 0 2 9 25 42 54 63 68 67 68 73 78 82 84 82 77 69 59 51 44 37 31 23 14 9 7 5 4 5 6 5 5 6 7 6 5 4 4 5 7 11 16 19 22 28 34
0 0 0 0 4 14 30 45 53 59 62 63 70 78 84 85 82 77 72 65 58 55 53 48 42 34 27 20 15 11 10 11 12 9 9 9 9 7 5 2 1 3 8 13 17 17 17 22 26
0 0 0 1 7 22 40 49 50 50 50 52 60 70 78 80 75 68 61 53 48 47 47 44 39 33 27 21 17 15 13 13 13 12 9 8 9 7 4 2 1 1 3 7 9 9 10 13 14
0 0 0 2 9 24 42 48 44 38 36 37 44 53 61 64 61 54 47 40 37 36 33 29 25 21 17 14 13 13 11 8 8 7 6 5 5 5 3 2 1 0 0 1 2 3 4 7 8
0 0 0 1 6 17 30 38 33 26 23 24 28 36 41 42 40 37 32 27 23 20 17 13 11 11 9 7 8 8 5 2 1 2 1 1 2 2 1 1 0 0 0 0 0 1 2 2 3
0 0 0 0 2 7 18 25 22 15 12 13 17 21 23 22 22 22 19 14 9 7 6 6 6 6 5 3 4 3 1 0 0 0 0 0 0 0 0 0 0 0 0 0 0 0 0 0 1
0 0 0 1 1 3 8 14 12 7 4 5 7 9 10 10 11 10 8 5 3 3 3 3 3 2 1 1 1 1 0 0 0 0 0 0 0 0 0 0 0 0 0 0 0 0 0 0 0
0 0 0 1 2 2 4 6 5 3 1 1 1 2 3 4 3 3 2 1 1 1 1 1 1 0 0 0 0 0 0 0 0 0 0 0 0 0 0 0 0 0 0 0 0 0 0 0 0
0 0 0 0 1 2 1 2 3 2 1 0 0 0 1 1 0 0 0 0 0 0 0 0 0 0 0 0 0 0 0 0 0 0 0 0 0 0 0 0 0 0 0 0 0 0 0 0 0
0 0 0 0 0 1 1 1 2 2 1 0 0 0 0 0 0 0 0 0 0 0 0 0 0 0 0 0 0 0 0 0 0 0 0 0 0 0 0 0 0 0 0 0 0 0 0 0 0
0 0 0 0 0 0 1 1 1 1 1 0 0 0 0 1 1 0 0 0 0 0 0 0 0 0 0 0 0 0 0 0 0 0 0 0 0 0 0 0 0 0 0 0 0 0 0 0 0
0 0 0 0 0 0 1 1 0 0 0 0 0 0 0 1 1 1 0 0 0 0 0 0 0 0 0 0 0 0 0 0 0 0 0 0 0 0 0 0 0 0 0 0 0 0 0 0 0
0 0 0 0 0 0 0 0 0 0 0 0 0 0 0 1 1 1 0 0 0 0 0 0 0 0 0 0 0 0 0 0 0 0 0 0 0 0 0 0 0 0 0 0 0 0 0 0 0
0 0 0 0 0 0 0 0 0 0 0 0 0 0 0 0 0 0 0 0 0 0 0 0 0 0 0 0 0 0 0 0 0 0 0 0 0 0 0 0 0 0 0 0 0 0 0 0 0
0 0 0 0 0 0 0 0 0 0 0 0 0 0 0 0 0 0 0 0 0 0 0 0 0 0 0 0 0 0 0 0 0 0 0 0 0 0 0 0 0 0 0 0 0 0 0 0 0
0 0 0 0 0 0 0 0 0 0 0 0 0 0 0 0 0 0 0 0 0 0 0 0 0 0 0 0 0 0 0 0 0 0 0 0 0 0 0 0 0 0 0 0 0 0 0 0 0
0 0 0 0 0 0 0 0 0 0 0 0 0 0 0 0 0 0 0 0 0 0 0 0 0 0 0 0 0 0 0 0 0 0 0 0 0 0 0 0 0 0 0 0 0 0 0 0 0
0 0 0 0 0 0 0 0 0 0 0 0 0 0 0 0 0 0 0 0 0 0 0 0 0 0 0 0 0 0 0 0 0 0 0 0 0 0 0 0 0 0 0 0 0 0 0 0 0
0 0 0 0 0 0 0 0 0 0 0 0 0 0 0 0 0 0 0 0 0 0 0 0 0 0 0 0 0 0 0 0 0 0 0 0 0 0 0 0 0 0 0 0 0 0 0 0 0
0 0 0 0 0 0 0 0 0 0 0 0 0 0 0 0 0 0 0 0 0 0 0 0 0 0 0 0 0 0 0 0 0 0 0 0 0 0 0 0 0 0 0 0 0 0 0 0 0
Wind_Speed
14 10 5 2 1 1 5 7 4 2 1 5 10 11 9 7 5 5 3 13 17 15 11 13 14 14 15 15 15 15 14 14 14 14 14 14 13 13 12 12 11 11 11 11 10 9 9 9 9
10 9 3 1 1 2 6 5 2 3 8 10 11 11 9 9 10 10 7 12 16 14 10 11 14 14 14 14 14 14 14 14 13 13 13 13 13 12 12 11 11 10 11 10 10 10 10 9 9
10 6 3 2 3 4 6 4 1 4 8 7 6 6 6 6 9 7 10 16 14 11 9 12 16 15 14 14 13 13 14 13 13 13 13 13 12 12 12 11 11 10 10 10 11 10 10 10 9
5 2 1 2 8 10 8 8 1 6 7 8 9 7 6 5 6 12 17 17 15 11 9 11 16 15 14 14 13 13 13 13 12 12 12 12 12 12 12 11 11 11 10 11 11 11 11 10 10
2 2 1 4 8 9 8 5 5 8 6 10 13 8 6 7 17 20 18 17 16 11 8 10 15 15 14 13 13 12 12 12 12 12 11 11 11 11 12 12 12 12 11 11 11 11 12 11 11
2 2 1 5 8 9 5 4 13 15 12 11 11 8 5 9 16 17 16 15 14 13 9 9 15 15 14 13 13 12 12 11 11 11 11 11 11 11 11 11 12 12 12 12 12 12 13 13 12
3 1 3 5 8 8 3 6 10 12 10 7 6 7 4 6 10 14 14 14 12 12 9 7 7 10 13 13 12 12 11 10 10 10 10 10 10 10 11 11 12 12 12 13 13 14 14 14 13
4 1 3 3 5 5 4 9 10 11 9 6 6 8 4 5 11 14 13 11 10 8 7 6 5 5 5 7 11 11 11 10 10 10 10 10 10 10 11 10 11 13 13 14 14 15 15 14 14
1 1 4 4 3 3 4 11 11 10 12 9 8 9 7 11 16 15 12 10 8 8 5 5 5 4 4 4 7 8 9 9 9 8 10 9 5 5 6 10 13 15 15 15 16 16 15 15 15
4 3 8 7 4 1 5 9 8 10 12 10 10 11 12 15 14 14 12 9 8 7 5 4 4 4 4 4 4 3 3 4 4 4 5 4 4 4 7 8 15 16 17 18 17 17 15 12 6
4 7 9 9 7 2 7 9 9 9 10 7 9 10 13 16 14 13 12 9 7 7 7 5 4 3 3 2 2 1 1 2 3 4 4 4 4 3 4 3 6 8 12 9 10 11 8 7 5
5 9 9 8 6 2 7 8 10 12 9 10 12 12 15 15 14 13 12 9 6 8 8 6 4 4 4 3 1 1 1 1 2 3 4 3 2 3 3 3 3 3 3 5 5 5 7 8 8
6 10 9 5 4 11 17 14 13 11 11 12 14 14 14 14 12 10 10 8 7 7 7 6 5 5 4 3 2 2 1 1 0 0 1 1 2 2 2 2 2 3 3 4 4 5 7 8 9
5 4 3 3 7 8 16 12 9 8 10 12 12 11 11 10 10 9 8 7 6 6 5 5 6 5 4 3 3 2 2 1 1 1 1 0 1 1 1 2 3 3 3 3 4 5 6 7 7
4 4 5 7 6 4 10 12 8 8 9 11 10 9 10 8 7 7 6 6 5 5 4 4 5 5 5 5 5 4 3 2 2 2 1 1 0 1 1 1 2 3 3 3 3 4 4 6 8
5 5 4 6 6 4 10 9 7 5 9 7 7 7 7 6 6 6 6 5 4 5 5 5 6 6 6 5 5 4 4 3 2 2 2 1 1 1 1 1 2 3 2 2 3 3 4 5 6
5 3 2 4 8 6 9 7 5 4 7 5 4 5 6 5 5 5 5 5 4 4 4 5 5 6 6 6 5 5 4 4 3 2 2 2 1 1 0 1 2 3 2 3 4 3 3 4 5
3 1 1 3 4 9 9 7 5 4 6 3 1 3 4 5 5 5 5 5 4 4 4 4 4 4 4 4 4 4 5 5 4 3 3 3 2 1 1 1 3 2 2 3 3 4 4 4 4
2 2 2 2 3 8 8 7 4 3 3 1 1 3 4 5 5 5 5 5 5 4 4 4 4 3 3 2 2 2 3 4 4 4 4 4 4 3 2 2 2 2 2 3 4 3 4 3 2
3 3 1 1 4 6 7 6 2 0 2 5 5 5 6 6 5 6 6 6 5 5 5 5 5 3 3 2 1 1 1 2 2 3 4 5 5 5 4 3 3 2 2 3 3 3 2 3 2
3 7 7 5 4 6 6 3 1 3 3 5 6 6 7 9 9 8 7 7 6 6 6 6 5 4 3 2 1 1 2 3 3 4 4 5 6 6 5 5 4 3 2 2 2 2 2 3 2
4 7 10 10 6 2 1 2 4 3 3 5 6 6 8 8 8 7 7 6 6 6 5 5 5 4 3 2 2 1 0 1 3 3 3 6 6 6 6 5 4 3 2 2 2 1 1 2 2
5 6 8 8 6 3 1 2 3 1 3 5 7 7 9 9 8 8 7 6 5 4 4 4 4 3 2 2 2 1 1 2 2 3 4 5 5 6 6 5 3 2 2 2 2 2 2 1 2
9 8 8 6 4 3 1 1 3 4 5 5 7 7 8 8 8 6 4 3 3 3 3 4 4 3 3 2 2 2 2 3 3 4 4 4 4 4 6 6 4 3 3 3 3 3 3 2 2
6 6 3 3 4 1 2 1 6 6 7 8 8 8 7 6 5 3 4 4 3 4 3 3 4 3 3 2 2 3 3 3 3 3 3 3 3 3 5 4 4 4 4 4 4 4 4 4 3
3 7 6 3 3 1 2 3 7 6 6 7 7 5 3 3 4 5 5 5 4 4 3 3 3 2 2 2 3 3 3 2 2 3 3 4 3 4 4 4 4 5 5 5 4 4 5 4 4
3 1 6 8 5 3 2 4 7 4 3 4 5 4 5 6 6 6 5 5 4 3 3 3 3 2 3 3 3 3 3 3 4 4 4 4 4 4 5 4 5 5 5 5 5 4 5 5 5
5 4 6 6 5 2 2 4 5 5 5 4 5 6 6 5 5 5 4 4 3 3 3 3 3 3 3 3 3 3 3 4 4 4 5 5 5 5 5 6 5 6 6 5 5 5 5 5 5
3 4 6 4 6 6 3 5 7 9 7 7 6 7 7 7 6 4 4 3 3 2 2 2 2 3 3 4 4 4 4 4 4 5 6 6 6 6 6 6 6 6 7 6 5 6 6 6 6
4 5 6 5 1 4 4 6 4 7 7 8 8 7 7 6 5 4 4 3 2 3 3 3 3 4 4 4 4 4 5 5 5 6 7 6 7 7 7 7 7 7 7 7 7 8 7 6 7
Wind_Direction
146 140 142 123 94 242 254 247 211 232 37 59 75 81 78 58 93 124 87 135 135 140 142 141 138 136 135 134 135 136 134 133 132 132 132 131 131 132 133 136 139 141 143 145 144 143 140 136 134
146 147 140 95 204 272 262 246 196 164 131 110 84 80 76 74 86 104 109 130 134 134 130 136 134 134 134 134 136 139 140 140 140 141 142 142 142 144 146 149 152 153 155 156 156 156 153 150 148
159 167 146 180 234 227 255 260 174 126 122 108 86 56 64 92 108 115 132 134 128 127 126 137 135 134 134 135 137 141 144 146 147 149 150 152 154 156 159 162 165 168 169 171 169 167 165 164 163
151 161 261 229 248 249 251 265 144 105 70 67 89 58 40 58 104 126 136 135 127 124 126 139 136 136 136 137 140 144 148 151 155 157 160 162 165 169 172 174 178 182 185 184 181 179 176 176 177
118 144 236 270 261 261 267 237 119 99 85 84 87 82 47 46 111 129 137 136 131 129 131 138 139 139 139 141 143 146 151 156 160 164 169 173 176 180 183 186 190 193 194 193 192 189 187 187 188
144 150 210 272 282 292 302 111 104 95 100 95 90 90 68 107 123 136 137 134 134 136 136 141 144 144 144 147 150 152 156 162 167 172 177 182 187 191 194 198 201 202 203 203 203 200 197 196 196
172 179 234 268 300 313 2 81 89 99 88 75 98 95 88 102 129 133 130 128 132 137 138 138 146 149 153 156 158 161 164 169 175 181 187 194 199 204 209 211 213 213 211 211 212 210 207 204 203
177 99 291 301 311 328 20 69 77 82 80 77 81 104 117 125 118 119 119 118 121 127 135 139 145 151 156 163 169 171 175 180 185 192 199 205 211 217 222 222 226 226 223 222 221 218 215 211 210
146 61 267 262 287 314 26 80 69 59 81 66 63 86 104 107 108 113 112 109 116 123 134 145 150 155 160 170 182 181 187 193 196 203 210 214 220 228 232 232 231 233 232 230 227 224 222 217 216
131 185 239 234 257 274 60 79 88 78 71 66 68 64 76 84 99 109 112 110 110 120 127 128 132 146 163 182 172 185 202 204 206 211 220 217 217 228 237 242 242 241 239 237 233 229 227 223 220
199 221 252 271 268 151 95 65 55 95 69 76 94 87 77 80 85 94 96 97 98 101 101 96 95 100 124 134 139 171 215 216 219 223 225 224 224 236 245 245 256 252 247 241 236 233 229 224 218
242 260 259 271 268 135 109 97 68 66 88 89 91 90 84 81 88 95 96 93 87 85 86 85 82 78 73 78 101 130 164 203 214 226 230 220 227 239 246 244 252 255 249 240 232 225 229 230 226
253 267 279 293 61 90 93 89 91 77 82 85 85 80 84 88 91 96 102 103 93 85 81 78 78 75 65 63 50 63 46 41 33 351 249 193 208 240 256 268 265 258 250 243 235 230 230 232 231
261 291 331 21 91 91 98 91 84 87 88 83 78 79 84 89 95 98 96 91 86 82 79 75 63 60 59 54 36 37 36 37 36 15 357 96 179 228 253 275 280 274 261 251 244 238 233 234 233
320 337 15 31 60 88 92 64 78 106 95 90 89 91 91 90 94 97 104 101 97 89 84 88 76 54 49 41 30 29 16 20 22 4 10 32 84 248 267 281 288 286 281 272 261 251 237 235 236
7 33 33 7 35 47 79 85 91 91 90 88 100 104 100 96 98 101 103 102 101 93 76 62 66 55 47 39 28 21 12 9 1 348 341 349 353 7 347 304 291 290 290 277 266 254 250 246 241
20 31 26 18 25 54 77 99 95 76 80 80 97 112 114 110 105 109 116 119 115 108 98 80 67 59 49 40 28 20 12 3 343 332 326 320 343 21 12 295 287 293 295 283 278 269 253 258 254
290 308 30 41 22 64 76 88 87 74 76 68 108 136 134 135 147 151 149 147 140 129 116 105 87 73 65 47 29 17 7 355 345 335 325 324 325 342 351 304 302 305 304 294 281 276 267 255 256
110 82 71 52 57 71 76 74 56 55 76 83 235 199 166 163 170 169 173 170 160 151 141 137 126 111 87 59 40 23 351 338 340 339 339 338 330 328 317 304 305 311 300 291 285 279 279 275 263
82 93 219 43 73 93 93 76 53 127 216 205 209 205 186 178 181 189 193 191 183 178 174 169 161 144 128 128 147 178 255 302 315 332 341 337 331 323 316 292 276 280 291 313 315 297 285 286 254
175 178 193 166 96 71 105 71 250 236 224 224 208 201 191 187 191 197 198 199 193 191 191 180 172 159 156 151 111 20 12 354 348 336 329 323 322 317 311 300 275 260 248 273 296 308 294 284 284
203 204 179 158 125 64 104 191 250 254 246 224 220 209 203 201 199 203 204 201 197 199 185 171 169 164 167 152 132 135 128 282 274 281 298 312 319 321 318 306 291 269 251 261 279 294 283 290 293
184 156 138 130 115 98 31 128 281 267 248 231 225 218 212 211 202 200 201 197 187 174 160 156 152 159 177 177 170 169 224 245 272 297 318 322 324 330 334 325 318 308 287 277 288 306 301 276 275
125 93 76 67 80 66 305 103 279 227 223 228 231 233 222 214 199 199 192 157 133 123 125 138 150 182 207 206 208 211 245 270 297 311 318 317 315 320 331 336 332 319 309 297 287 280 287 281 279
117 108 71 21 30 353 288 293 262 243 236 225 229 238 228 205 187 166 139 123 123 128 137 148 161 199 230 236 251 255 258 260 268 279 277 289 301 305 310 328 329 321 310 301 294 285 281 276 277
178 139 149 181 181 202 307 265 266 258 242 228 232 232 207 152 135 132 137 138 140 144 148 158 174 216 247 255 268 273 269 251 254 258 259 270 268 272 280 295 306 307 305 306 301 288 277 274 270
63 55 153 121 99 100 257 286 299 284 254 216 200 169 143 139 137 139 143 147 154 153 162 174 182 217 252 262 267 268 261 249 257 268 269 271 271 276 286 293 295 296 297 296 299 289 284 282 270
117 118 71 85 119 116 217 223 224 222 215 189 157 149 148 146 143 142 150 162 169 172 182 189 194 218 246 260 260 261 258 262 264 270 276 275 275 277 285 286 286 287 288 288 288 283 280 279 273
42 55 89 95 130 138 189 254 222 197 191 169 166 162 162 164 162 166 173 178 180 184 195 213 233 245 263 266 263 269 270 269 268 267 267 267 267 269 269 270 275 278 280 281 280 277 278 274 277
137 145 130 118 29 123 142 263 273 169 167 157 164 172 175 171 174 178 180 188 204 220 235 244 248 253 256 255 258 261 265 269 271 269 267 265 263 263 260 260 262 267 272 271 270 274 278 268 267